DELTA 1 DEB, 12540

Orbit data source: Space-Track

DELTA 1 DEB, 12540 is space debris in SSO originally from a launch on Thu, 29 Jul 1976 UTC launched from the Air Force Western Test Range (AFWTR). Debris objects in space refer to the collection of defunct objects orbiting the Earth. Examples of debris include non-operational satellites, rocket bodies, and fragments generated from explosions, collisions, or faulty payload assembly.

Loading next visibility...
Identifier
12540, 1976-077DV
Orbit
SSO
Country
Flag of USUS
Related business
Manufacturer
Unknown
Mission
Spacecraft
Bus & Motor
Unknown
Mass
Unknown
Launch date (UTC)
1976-07-29 (50 years ago)
Launch vehicle
Unknown
Launch site
Air Force Western Test Range (AFWTR)
Object type
Payload
Rocket body
Debris
Shape & HBR
Unknown shape, 0.1 m
Radar Cross Section
Small (<0.1 m²)

Expand to show TLE details & history
Last TLE update: 13 hours ago

TLE from 13 hours ago
0 DELTA 1 DEB
1 12540U 76077DV  26118.78287317 -.00000344  00000-0 -20153-2 0  9996
2 12540 102.4365 238.9760 0044143  89.3148  79.6961 12.47117661 94589
Epoch: 2026-04-28T18:47Z
TLE epoch observation values (Epoch: 2026-04-28T18:47:20.241Z)
Latitude
10.19553°
Longitude
-77.34966°
Altitude
1,472.322 km
Speed
7.13 km/s
True Right ascension
04h 04m 57s
True Declination
10° 08' 28"
Sunlit
Object was in daylight at epoch
Visualization orbit readout
Latitude
Unknown
Longitude
Unknown
Altitude
Unknown
Speed
Unknown
Apparent Right ascension
Unknown
Apparent Declination
Unknown
Sunlit
N/A
Visualization observer readout
Local Sidereal Time
15:32:07
Azimuth
Unknown
Elevation
Unknown
Doppler factor
Unknown
Orbital elements
Apogee altitude
1,508.828 km
Perigee altitude
1,439.504 km
Semi-major axis
7,852.303 km
Eccentricity
0.00441
Inclination
102.4365°
RAAN
238.976°
Arg. of periapsis
89.3148°
True anomaly
80.19427°
Mean anomaly
79.6961°
Eccentric anomaly
79.94514°
Mean motion
3.11923 °/min
Orbital period
115.41 mins
BSTAR
-0.0020153
Loading maneuver chart data...
Computing Atmospheric mass density...
Loading historical data...
Loading historical data...
Loading historical data...
Loading historical data...
Loading historical data...
Loading historical data...
Loading historical data...

Documentation

Showing up to 5 results
|